FENGYUN 1C DEB

Satellite information

Favourite Embed

Satellite Type and Status

DEBRISIN ORBIT

Key statistics

Satellite FENGYUN 1C DEB at a glance.

Uptime

9615

Days in orbit

Revolutions

≈ 14.3

Per day

Orbit

SSO

Sun Synchronous Orbit

Inclination

99.1

Latest

Satellite identification and parameters

Extended collection of information and parameters for FENGYUN 1C DEB.

Object identification

Identified? True

Debris? True

Object name: FENGYUN 1C DEB

International designator: 1999-025XL

Object number (NORAD): 30251

Object ID (CCSDS): 30251

Country: PEOPLES REPUBLIC OF CHINA (PRC)

Current information (Y/N): Y

RCS size: SMALL

Orbital parameters

Period: 100.773 minutes

Inclination: 99.0592 deg

SMA: 7173.357 km

Apoapsis: 831.842 km

Periapsis: 758.602 km

RAAN: 81.6292 deg

Eccentricy: 0.00510501

Argument of periapsis: 258.0097 deg

Mean anomaly: 224.3686 deg

Mean motion: 14.28956662 rev/day

Mean motion (dot): 0.0000177 rev/day2

B* drag term: 0.00070928928 1/REarth

Two-line elements (TLE)

Creation date: Sept. 4, 2025, 10:13 a.m.

Reference frame: TEME

Reference center: EARTH

Epoch: Sept. 4, 2025, 3:16 a.m. UTC

TLE line 0: 0 FENGYUN 1C DEB

TLE line 1: 1 30251U 99025XL 25247.13657852 .00001770 00000-0 70929-3 0 9998

TLE line 2: 2 30251 99.0592 81.6292 0051050 258.0097 224.3686 14.28956662967199

Live tracking on map

Real-time ground track for satellite FENGYUN 1C DEB.

In-orbit conjunctions

A list of the most updated potential collisions computed for object FENGYUN 1C DEB.

Target Orbit TCA Probability of collision Miss distance Type
DTUSAT SSO 2025-09-03 16:43:49 0.0005949589 278.0 (m) PAYLOAD
CZ-6A DEB LEO 2024-09-26 13:58:38 0.0002347125 535.0 (m) DEBRIS

Associated space launch

Chinese polar orbiting meteorological satellite

FENGYUN 1C DEB was lifted into orbit during the mission ‘Long March 4B | Feng Yun 1C’, on board a Long March 4B space rocket.

The launch took place on May 10, 1999, 1:33 a.m. from Launch Complex 7.

For more information about the launch, click the button.

Launch to space Long March 4B | Feng Yun 1C
Long March 4B | Feng Yun 1C

Agency: N/A

Status: Launch Successful

Launch date: May 10, 1999, 1:33 a.m. UTC

Rocket: Long March 4B

Launch pad: Launch Complex 7

Location: Taiyuan Satellite Launch Center, People's Republic of China

...

Latest news about this satellite

There are no fresh news available about this satellite. Check back as we update our databases every day.


Newsletter sign-up

Weekly statistics, charts and insights to help you stay on top of the space industry.